Regional Weather Roundup
Issued by NWS Newport/Morehead, NC

Home | Current Version | Previous Version | Text Only | Print | Product List | Glossary On
Versions: 1 2 3 4 5 6 7 8 9 10 11 12 13 14 15 16 17 18 19 20 21 22 23 24 25 26 27 28 29 30 31 32 33 34 35 36 37 38 39 40 41 42 43 44 45 46 47 48 49 50
000
ASUS42 KMHX 210525
RWRMHX
WEATHER ROUNDUP FOR EASTERN NORTH CAROLINA
NATIONAL WEATHER SERVICE NEWPORT/MOREHEAD CITY NC
1200 AM EST SAT JAN 21 2017

NOTE: "FAIR" INDICATES FEW OR NO CLOUDS BELOW 12,000 FEET
WITH NO SIGNIFICANT WEATHER AND/OR OBSTRUCTIONS TO VISIBILITY

NCZ015>017-031-032-045>047-102-103-210600-
NORTH COAST

CITY           SKY/WX    TMP DP  RH WIND       PRES   REMARKS
EDENTON        CLOUDY    52  49  92 CALM      29.94F FOG
ELIZABETH CITY FOG       48  48 100 CALM      29.93F VSB 1
KITTY HAWK     NOT AVBL
MANTEO         FOG       47  47 100 N5        29.92S VSB 3/4

$$

NCZ045>047-081-094-103-104-210600-
CENTRAL COAST

CITY           SKY/WX    TMP DP  RH WIND       PRES   REMARKS
FRISCO         CLEAR     51  49  92 N3        29.91S FOG

$$

NCZ095-097-098-100-101-210600-
SOUTHERN COAST

CITY           SKY/WX    TMP DP  RH WIND       PRES   REMARKS
BEAUFORT       PTCLDY    52  51  97 N5        29.91F
CEDAR ISLAND   NOT AVBL
JACKSONVILLE   NOT AVBL
PINEY ISLAND   PTCLDY   N/A N/A N/A NW6       29.92S
WILMINGTON     FOG       53  53 100 CALM      29.91F VSB 1/4


$$

NCZ011>013-027>030-043-044-078>080-089-090>093-098-210600-
COASTAL PLAIN

CITY           SKY/WX    TMP DP  RH WIND       PRES   REMARKS
AHOSKIE          N/A     48  48  98 CALM      29.95S FOG
CLINTON        PTCLDY    55  54  99 NE3       29.91F
ELIZABETHTOWN  PTCLDY    55  55 100 CALM      29.91F FOG
GOLDSBORO      FOG       52  52 100 NE6       29.90F VSB 1
GREENVILLE     FOG       52  52 100 CALM      29.95F VSB 3/4
HAVELOCK       FOG       51  50  96 N6        29.92F VSB 1
KENANSVILLE    FOG       50  50 100 CALM      29.92F VSB 1/2
KINSTON        FOG       53  53  99 NE3       29.94F VSB 1/2
NEW BERN       MOCLDY    49  48  97 N3        29.94S FOG
RICHLANDS      PTCLDY    52  52 100 NE6       29.92F FOG
ROCKY MOUNT    FOG       51  51 100 CALM      29.93F VSB 1/2
WASHINGTON     FOG       49  49  99 CALM        N/A  VSB 1
WHITEVILLE     PTCLDY    55  54  95 CALM      29.90F

$$

AMZ130-135-150-152-154-156-158-170-250-252-270-ANZ085-086-088-633-658-670-210600-
MARINE OBSERVATIONS

STATION/POSITION TIME  TEMP    WIND        PRES    WAVE   SWELL
                       AIR SEA DIR/SP/G            HT/PER HT/PER
                 (UTC) (F)     (DEG/KT/KT) (MB)    (FT/S) (FT/S)
CHESAPEAKE LIGHT NOT AVBL
64 E VA BEACH    0450   55 58   10/ 14/ 17 1011.7    4/11   3/11
DUCK             0500   48 45  340/ 10/ 11 1012.4
2 E DUCK         0500      45                N/A     4/12   2/12
OREGON INLET     0500   49 48  310/  7/ 10 1012.7
13E OREGON INLT  NOT AVBL
HATTERAS CG      0500   50 55  340/  7/  9 1012.1
DIAMOND BUOY     0450   62 75  350/ 14/ 17 1012.0    5/11   3/11
CAPE LOOKOUT     0500   53     360/  8/ 10 1012.6
BEAUFORT LAB     0500   53 52   10/  8/ 10 1012.0
30 SE NEW RVR IN 0508   60 62  330/  8/ 12 1012.7
30 SE NEW RVR IN 0443      62                N/A     4/11   2/11
27 SE WRIGHTSVLE 0508   66 71  270/ 10/ 14 1012.4
5 SE WRIGHTSVLE  0508   55     240/  4/  6 1012.7
225 S CAPE HAT   0450   72 70  240/ 14/ 16 1013.1    6/13   5/13
41 SE CHARLESTON 0450   69 68  210/  8/ 10 1012.9    2/13   2/13

$$



USA.gov is the U.S. government's official web portal to all federal, state and local government web resources and services.